Weather Roundup
Issued by NWS

Home | Current Version | Previous Version | Text Only | Print | Product List | Glossary On
Versions: 1 2 3 4 5 6 7 8 9 10 11 12 13 14 15 16 17 18 19 20 21 22 23 24 25 26 27 28 29 30 31 32 33 34 35 36 37 38 39 40 41 42 43 44 45 46 47 48 49 50
000
NZUS93 KARX 310859
HRRWXR

CURRENT HOURLY OBSERVATIONS ACROSS
MUCH OF THE UPPER MISSISSIPPI VALLEY
NATIONAL WEATHER SERVICE LA CROSSE WI
400 AM CDT FRI JUL 31 2015


...SOUTHEAST MINNESOTA...


CITY           SKY/WX    TMP DP  RH WIND       PRES   REMARKS
ROCHESTER      CLEAR     62  59  90 W9        30.07S
ROCHESTER/MAYO FAIR      68  60  74 W7        30.05S
WINONA         CLEAR     63  59  88 CALM      30.02S
AUSTIN         CLEAR     66  61  82 W5        30.07S
ALBERT LEA     CLEAR     64  61  88 W5        30.08S
DODGE CENTER   PTCLDY    61  57  88 W7        30.06S
PRESTON        CLEAR     63  59  87 W7        30.06F
OWATONNA       CLEAR     61  57  88 SW6       30.06S
FARIBAULT      CLEAR     63  61  94 W6        30.06R
$$

...ELSEWHERE IN MINNESOTA...


CITY           SKY/WX    TMP DP  RH WIND       PRES   REMARKS
MINNEAPOLIS    CLEAR     69  56  62 NW12      30.03R
INTNL FALLS    CLEAR     57  55  93 W7        29.91S
DULUTH         PTCLDY    64  53  67 W13       29.93S
RED WING       CLEAR     61  59  94 CALM      30.01R
REDWOOD FALLS  CLEAR     63  58  83 W8        30.09R
MANKATO        CLEAR     64  57  77 W9        30.07S
WORTHINGTON    PTCLDY    61  55  82 W3        30.14S
FAIRMONT       CLEAR     64  55  72 CALM      30.10S
$$

...SOUTHWEST WISCONSIN...


CITY           SKY/WX    TMP DP  RH WIND       PRES   REMARKS
LA CROSSE      CLEAR     67  61  81 S5        30.00F
PRAIRIE DU CHI MOCLDY    67  62  83 CALM      30.02S
BOSCOBEL       CLOUDY    62  60  93 SW3       30.02F
LONE ROCK      NOT AVBL
PLATTEVILLE    CLEAR     63  61  93 SW6       30.03F
FORT MC COY    PTCLDY    56  54  93 CALM      30.02S
VIROQUA        FAIR      62  60  94 W6        30.04S
WIS DELLS      PTCLDY    64  56  74 SW5       30.01S
$$

...ELSEWHERE IN WISCONSIN...


CITY           SKY/WX    TMP DP  RH WIND       PRES   REMARKS
MILWAUKEE      CLEAR     70  56  61 W7        29.99S
MADISON        PTCLDY    69  57  65 CALM      30.00F
GREEN BAY      CLEAR     66  58  75 W7        29.93S
EAU CLAIRE     NOT AVBL
BLACK RVR FLS  FAIR      56  56 100 CALM      29.99S
MEDFORD        CLEAR     60  56  87 W5        29.97S
WAUSAU         CLEAR     65  57  75 NW9       29.94S
WIS RAPIDS     CLEAR     64  57  78 W7        29.99S
MARSHFIELD     CLEAR     62  55  77 W6        29.98S
RICE LAKE      CLEAR     62  56  83 W5        29.99S
$$

...NORTHEAST IOWA...


CITY           SKY/WX    TMP DP  RH WIND       PRES   REMARKS
DECORAH        CLEAR     66  63  88 W3        30.05S
MASON CITY     CLEAR     65  63  93 W6        30.10F
CHARLES CITY   CLEAR     66  66 100 W8        30.08S
OELWEIN        CLEAR     66  64  94 SW6       30.07F
$$

...ELSEWHERE IN IOWA...


CITY           SKY/WX    TMP DP  RH WIND       PRES   REMARKS
DES MOINES     PTCLDY    71  64  78 W5        30.10F
IOWA CITY      CLEAR     67  63  87 W3        30.08F
FORT DODGE     CLEAR     64  59  82 SW5       30.12R
$$

...NORTHERN ILLINOIS...


CITY           SKY/WX    TMP DP  RH WIND       PRES   REMARKS
CHICAGO-OHARE  CLEAR     69  58  67 W6        30.02F
CHICAGO-MIDWAY CLEAR     73  57  57 W7        30.03S
MOLINE         CLEAR     67  63  87 SW3       30.07F
ROCKFORD       PTCLDY    62  58  86 S5        30.05F
PEORIA         CLEAR     71  63  75 W5        30.09S
$$

NOTE: "FAIR" INDICATES FEW OR NO CLOUDS BELOW 12,000 FEET WITH NO
SIGNIFICANT WEATHER AND/OR OBSTRUCTIONS TO VISIBILITY. WIND
SPEEDS ARE IN MILES-PER-HOUR.



USA.gov is the U.S. government's official web portal to all federal, state and local government web resources and services.